Location: Grand Mazuras
(45.9128°N, 1.7636°E)
Time: 17:27:11
(UTC+00:00)

OBJECT-B - Pass Details

Date: 18 April 2021
Orbit: 415 x 424 km, 97.0° (Epoch: 25 April)

Event Time Altitude Azimuth Distance (km) Brightness Sun altitude
Exits shadow 19:45:44 - 172° (S) 1,927 3.8 -10.7°
Reaches altitude 10° 19:46:44 10° 174° (S) 1,496 3.2 -10.9°
Maximum altitude 19:49:56 72° 258° (WSW) 448 1.0 -11.4°
Drops below altitude 10° 19:53:10 10° 344° (NNW) 1,516 4.3 -11.8°
Sets 19:55:12 0° 347° (NNW) 2,388 5.3 -12.2°
